Location: Castiglione Fibocchi
(43.5333°N, 11.7667°E)
Time: 10:20:40
(UTC+00:00)

Cosmos 1455 Rocket - Pass Details

Date: 15 August 2020
Orbit: 604 x 630 km, 82.5° (Epoch: 18 September)

Event Time Altitude Azimuth Distance (km) Brightness Sun altitude
Exits shadow 00:35:29 39° 46° (NE) 953 4.3 -29.8°
Drops below altitude 10° 00:38:35 10° 18° (NNE) 2,018 6.6 -29.6°
Sets 00:40:53 0° 14° (NNE) 2,931 7.7 -29.4°
